NOAA 17 DEB

基本信息
目录编号:
48184
目录名称:
NOAA 17 DEB
国际标识:
2002-032Z
轨道中心:
EARTH
物体状态:
在轨
发射日期:
2002-06-24 UTC
轨道信息
数据来源: 国际轨道数据
星历时间: 2026-07-12T18:40:56+0800
半长轴: 7095.945km
偏心率: 0.0012512
轨道倾角: 98.832°
近地点辐角: 172.887°
升交点赤经: 195.121°
平近点角: 187.250°
近地点: 708.929km
远地点: 726.687km
周期: 99.146分钟
每日圈数: 14.524041
详细信息
发射场:
AFWTR
轨道高度:
LEO
数据来源:
AOE Integration Group
参考系:
TEME
时间系统:
UTC
历元类型:
SGP4
2D轨道图
3D轨道图
轨道高度分析图
轨道倾角分析图
轨道综合分析图
查看轨道综合分析图